Home   Weather   Buenos Aires   Past weeks

Flag for Argentina Past Weather in Buenos Aires, Argentina — Yesterday and Last 2 Weeks

Now
84 °F

Passing clouds.


Feels Like: 81 °F
Forecast: N/A
Wind: 9 mph from Southwest

Location: Buenos Aires Airport

Current Time: Dec 6, 2016 at 6:54:47 pm

Latest Report: Dec 6, 2016 at 5:00 pm


Visibility: N/A

Pressure: 29.80 "Hg

Humidity: 19%

Dew Point: 37 °F

Location of Buenos AiresLocation

Past Weather in Buenos Aires — Graph

°F

Buenos Aires Temperature Yesterday

Maximum temperature yesterday: 88 °F (at 4:00 pm)
Minimum temperature yesterday: 70 °F (at 6:00 pm)
Average temperature yesterday: 77 °F

High & Low Weather Summary for the Past Weeks

 TemperatureHumidityPressure
High88 °F (Dec 5, 4:00 pm)94% (Nov 26, 2:00 pm)30.21 "Hg (Nov 26, 2:00 pm)
Low55 °F (Nov 22, 3:00 am)19% (Dec 6, 1:00 pm)29.56 "Hg (Nov 26, 6:00 pm)
Average74 °F63%29.92 "Hg
* Reported Nov 21 5:00 pm — Dec 6 5:00 pm, Buenos Aires, Weather by CustomWeather, © 2016

Note: Actual official high and low records may vary slightly from our data, if they occured in-between our weather recording intervals... More about our weather records

Advertising

Buenos Aires Weather History for the Previous 24 Hours

Scroll right to see more
 ConditionsComfort  
Time TempWeatherWind HumidityBarometerVisibility
5:00 pm
Tue, Dec 6
84 °FPassing clouds.9 mph19%29.80 "HgN/A
4:00 pm84 °FPassing clouds.9 mph19%29.80 "HgN/A
3:00 pm82 °FPassing clouds.10 mph20%29.83 "HgN/A
2:00 pm82 °FSunny.10 mph21%29.83 "Hg10 mi
1:00 pm82 °FPassing clouds.12 mph19%29.86 "HgN/A
12:00 pm82 °FPassing clouds.12 mph20%29.86 "HgN/A
11:00 am79 °FPassing clouds.12 mph21%29.86 "HgN/A
10:00 am77 °FSunny.7 mph26%29.83 "Hg10 mi
9:00 am73 °FPassing clouds.9 mph29%29.83 "HgN/A
8:00 am72 °FPassing clouds.6 mph29%29.83 "HgN/A
7:00 am70 °FPassing clouds.5 mph35%29.80 "HgN/A
6:00 am66 °FSunny.5 mph46%29.83 "Hg10 mi
5:00 am68 °FPassing clouds.3 mph46%29.80 "HgN/A
4:00 am68 °FPassing clouds.7 mph49%29.80 "HgN/A
3:00 am68 °FClear.3 mph49%29.80 "Hg10 mi
2:00 am68 °FPassing clouds.3 mph49%29.80 "HgN/A
1:00 am70 °FClear.5 mph57%29.80 "Hg10 mi
12:00 am70 °FPassing clouds.5 mph60%29.83 "HgN/A
11:00 pm
Mon, Dec 5
72 °FPassing clouds.3 mph65%29.80 "HgN/A
10:00 pm72 °FPassing clouds.No wind61%29.80 "HgN/A
9:00 pm70 °FPassing clouds.5 mph64%29.77 "HgN/A
8:00 pm70 °FThundershowers. Partly cloudy.5 mph69%29.74 "HgN/A
7:00 pm70 °FOvercast.6 mph73%29.74 "HgN/A
6:00 pm70 °FLight rain. More clouds than sun.12 mph83%29.74 "Hg6 mi
Weather by CustomWeather, © 2016

See weather overviewHow to use our weather pages